Погода в Пежме

Россия / Вологодская область     60°51′11″N   41°43′54″E
темп.,
°C
ветер,
м/с
пор.,
м/с
влажн.,
%
обл.,
%
осадки,
мм/ч
давл.,
гПа
погр.,
м
17 октября, вс
вс1700:00+3юз4128934 0.0 1003705
03:00+2ююз4129181 0.0 1002538
06:00+2ююз51392100 0.0 1001669
09:00+3юз51196100 0.8 1000957
12:00+5юз51280100 0.1 10001394
15:00+5юз5128144 0.4 10001301
18:00+3юз5128441 0.0 1001926
21:00+3юз5128586 0.0 1001906
18 октября, пн
пн1800:00+2юз5128639 0.0 1001843
03:00+1юз5128799 0.0 1001778
06:00+2юз5973100 0.0 10011148
09:00+2юз4979100 0.0 1001996
12:00+4юз587113 0.1 10011113
15:00+3юз58739 0.1 1001905
18:00+1юз41083100 0.0 1002688
21:00+1зюз3997100 0.1 1002674
19 октября, вт
вт1900:00+1зсз3797100 0.4 1003367
03:00+1зсз3894100 0.4 1005598
06:00+1зсз3892100 0.1 1007621
09:00+2сз2699100 0.5 1008309
12:00+2сз466981 0.2 10101029
15:00+2сз367090 0.2 10111089
18:000зсз4978100 0.1 1012681
21:00−2з398399 0.1 1013613
20 октября, ср
ср2000:00−2зсз399295 0.1 1013527
03:00−1сз4877100 0.3 1014962
06:000зсз49789 0.0 1015724
09:00−1зсз49835 0.0 1016508
12:00+1зсз466446 0.0 1016816
15:00+1зюз356469 0.0 1016937
18:00−2юз288845 0.0 1016214
21:00−1ююз41076100 0.0 1013632
21 октября, чт
чт2100:00−2ю51373100 0.0 1010716
03:00−1ю61667100 0.0 1005774
06:00−1ю71893100 0.8 1000759
09:000ю71791100 2.8 995909
12:00+2ююз71891100 0.5 992802
15:00+4ююз61692100 1.1 990781
18:00+5ююз61596100 0.1 988651
21:00+6ююз61695100 1.1 985819